Home   Weather   Bünde   Past weeks

Flag for Germany Past Weather in Bünde, North Rhine-Westphalia, Germany — Yesterday and Last 2 Weeks

Now
66 °F

Partly sunny.


Feels Like: 66 °F
Forecast: 49 / 69 °F
Wind: 3 mph from North

Location: Bueckeburg

Current Time: Sep 26, 2016 at 5:43:06 PM

Latest Report: Sep 26, 2016 at 4:20 PM


Visibility: N/A

Pressure: 30.21 "Hg

Humidity: 60%

Dew Point: 52 °F

Location of BündeLocation

Past Weather in Bünde — Graph

°F

Bünde Temperature Yesterday

Maximum temperature yesterday: 79 °F (at 5:20 PM)
Minimum temperature yesterday: 55 °F (at 3:20 AM)
Average temperature yesterday: 66 °F

High & Low Weather Summary for the Past Weeks

 TemperatureHumidityPressure
High91 °F (Sep 13, 3:20 PM)100% (Sep 17, 12:20 PM)30.30 "Hg (Sep 17, 12:20 PM)
Low46 °F (Sep 19, 5:20 AM)26% (Sep 13, 4:20 PM)29.86 "Hg (Sep 15, 4:20 PM)
Average65 °F67%30.06 "Hg
* Reported Sep 11 3:20 PM — Sep 26 3:20 PM, Bünde, Weather by CustomWeather, © 2016

Note: Actual official high and low records may vary slightly from our data, if they occured in-between our weather recording intervals... More about our weather records

Advertising

Bünde Weather History for the Previous 24 Hours

Scroll right to see more
 ConditionsComfort  
Time TempWeatherWind HumidityBarometerVisibility
3:20 PM
Mon, Sep 26
66 °FPartly sunny.3 mph64%30.21 "HgN/A
2:20 PM66 °FPartly sunny.3 mph64%30.21 "HgN/A
1:20 PM64 °FPartly sunny.5 mph73%30.21 "HgN/A
12:20 PM64 °FScattered clouds.3 mph73%30.21 "HgN/A
11:20 AM61 °FBroken clouds.5 mph83%30.21 "HgN/A
10:20 AM61 °FPartly sunny.5 mph83%30.21 "HgN/A
9:20 AM59 °FPartly sunny.3 mph82%30.18 "HgN/A
8:20 AM59 °FPartly sunny.3 mph82%30.18 "HgN/A
7:20 AM59 °FBroken clouds.3 mph82%30.18 "HgN/A
6:20 AM57 °FPartly cloudy.2 mph88%30.18 "HgN/A
5:20 AM59 °FPassing clouds.5 mph77%30.15 "HgN/A
4:20 AM59 °FPartly cloudy.6 mph82%30.15 "HgN/A
3:20 AM61 °FPassing clouds.7 mph77%30.15 "HgN/A
2:20 AM63 °FPassing clouds.10 mph77%30.15 "HgN/A
1:20 AM61 °FPartly cloudy.6 mph88%30.12 "HgN/A
12:20 AM59 °FPassing clouds.3 mph82%30.12 "HgN/A
11:20 PM
Sun, Sep 25
63 °FPassing clouds.6 mph73%30.09 "HgN/A
10:20 PM64 °FPassing clouds.6 mph60%30.04 "HgN/A
9:20 PM68 °FPassing clouds.8 mph56%30.04 "HgN/A
8:20 PM70 °FPassing clouds.8 mph50%30.04 "HgN/A
7:20 PM72 °FPassing clouds.7 mph47%30.01 "HgN/A
6:20 PM75 °FScattered clouds.8 mph44%30.01 "HgN/A
5:20 PM79 °FPleasantly warm.8 mph37%30.01 "Hg3 mi
Weather by CustomWeather, © 2016

See weather overviewHow to use our weather pages